When you browse on this site, cookies collect data to enhance your experience and personalize the content and advertising you see.
Visit our Privacy Policy to learn more. By continuing to use the site, you agree to this use of cookies and data.
EN

Hourly Weather Apostolidi

Today, 9 July, Thursday

Time Temperature Precipitation Wind Pressure Humidity
00:00 +24°C° 0.6 mm 3 mps 755 mmHg 90%
01:00 +24°C° 0 mm 3 mps 755 mmHg 91%
02:00 +22°C° 0 mm 3 mps 755 mmHg 92%
03:00 +22°C° 0 mm 3 mps 756 mmHg 93%
04:00 +21°C° 0 mm 3 mps 756 mmHg 92%
05:00 +21°C° 0 mm 3 mps 756 mmHg 92%
06:00 +21°C° 0 mm 3 mps 757 mmHg 91%
07:00 +22°C° 0 mm 3 mps 757 mmHg 84%
08:00 +24°C° 0 mm 3 mps 757 mmHg 77%
09:00 +25°C° 0 mm 4 mps 757 mmHg 70%
10:00 +26°C° 0 mm 4 mps 758 mmHg 64%
11:00 +27°C° 0 mm 4 mps 758 mmHg 58%
12:00 +28°C° 0 mm 4 mps 758 mmHg 51%
13:00 +29°C° 0 mm 4 mps 758 mmHg 50%
14:00 +29°C° 0 mm 4 mps 758 mmHg 49%
15:00 +29°C° 0 mm 4 mps 758 mmHg 47%
16:00 +29°C° 0 mm 4 mps 758 mmHg 49%
17:00 +28°C° 0 mm 4 mps 758 mmHg 50%
18:00 +28°C° 0 mm 4 mps 758 mmHg 52%
19:00 +26°C° 0 mm 4 mps 758 mmHg 56%
20:00 +24°C° 0 mm 3 mps 758 mmHg 60%
21:00 +22°C° 0 mm 3 mps 759 mmHg 64%
22:00 +21°C° 0 mm 2 mps 759 mmHg 66%
23:00 +20°C° 0 mm 2 mps 759 mmHg 67%

Tomorrow, 10 July, Friday

Time Temperature Precipitation Wind Pressure Humidity
00:00 +20°C° 0 mm 2 mps 759 mmHg 69%
01:00 +19°C° 0 mm 2 mps 759 mmHg 71%
02:00 +19°C° 0 mm 2 mps 759 mmHg 74%
03:00 +19°C° 0 mm 1 mps 759 mmHg 76%
04:00 +19°C° 0 mm 2 mps 760 mmHg 77%
05:00 +19°C° 0 mm 2 mps 760 mmHg 78%
06:00 +19°C° 0 mm 2 mps 760 mmHg 79%
07:00 +21°C° 0 mm 3 mps 760 mmHg 71%
08:00 +23°C° 0 mm 4 mps 760 mmHg 62%
09:00 +26°C° 0 mm 5 mps 760 mmHg 54%
10:00 +27°C° 0 mm 5 mps 760 mmHg 50%
11:00 +28°C° 0 mm 5 mps 760 mmHg 45%
12:00 +29°C° 0 mm 5 mps 760 mmHg 41%
13:00 +30°C° 0 mm 5 mps 760 mmHg 40%
14:00 +30°C° 0 mm 5 mps 759 mmHg 39%
15:00 +30°C° 0 mm 5 mps 759 mmHg 39%
16:00 +30°C° 0 mm 5 mps 759 mmHg 41%
17:00 +29°C° 0 mm 5 mps 759 mmHg 43%
18:00 +29°C° 0 mm 6 mps 759 mmHg 45%
19:00 +27°C° 0 mm 5 mps 759 mmHg 49%
20:00 +26°C° 0 mm 4 mps 759 mmHg 54%
21:00 +23°C° 0 mm 4 mps 759 mmHg 59%
22:00 +23°C° 0 mm 4 mps 759 mmHg 61%
23:00 +22°C° 0 mm 4 mps 759 mmHg 62%

Day after tomorrow, 11 July, Saturday

Time Temperature Precipitation Wind Pressure Humidity
00:00 +21°C° 0 mm 4 mps 759 mmHg 64%
01:00 +21°C° 0 mm 4 mps 759 mmHg 66%
02:00 +20°C° 0 mm 3 mps 759 mmHg 69%
03:00 +19°C° 0 mm 3 mps 759 mmHg 72%
04:00 +19°C° 0 mm 3 mps 759 mmHg 72%
05:00 +19°C° 0 mm 3 mps 759 mmHg 72%
06:00 +20°C° 0 mm 3 mps 759 mmHg 72%
07:00 +22°C° 0 mm 4 mps 759 mmHg 66%
08:00 +25°C° 0 mm 5 mps 759 mmHg 59%
09:00 +27°C° 0 mm 5 mps 759 mmHg 53%
10:00 +28°C° 0 mm 5 mps 759 mmHg 50%
11:00 +30°C° 0 mm 6 mps 758 mmHg 47%
12:00 +32°C° 0 mm 6 mps 758 mmHg 44%
13:00 +33°C° 0 mm 6 mps 758 mmHg 44%
14:00 +34°C° 0 mm 6 mps 757 mmHg 44%
15:00 +34°C° 0 mm 6 mps 757 mmHg 43%
16:00 +34°C° 0 mm 6 mps 756 mmHg 45%
17:00 +33°C° 0 mm 6 mps 756 mmHg 47%
18:00 +33°C° 0 mm 6 mps 756 mmHg 49%
19:00 +32°C° 0 mm 5 mps 756 mmHg 53%
20:00 +29°C° 0 mm 5 mps 756 mmHg 58%
21:00 +28°C° 0 mm 4 mps 756 mmHg 63%
22:00 +27°C° 0 mm 4 mps 756 mmHg 66%
23:00 +26°C° 0 mm 3 mps 755 mmHg 70%

12 July, Sunday

Time Temperature Precipitation Wind Pressure Humidity
00:00 +25°C° 0 mm 3 mps 755 mmHg 74%
01:00 +25°C° 0 mm 2 mps 755 mmHg 76%
02:00 +24°C° 0 mm 2 mps 755 mmHg 78%
03:00 +23°C° 0 mm 2 mps 755 mmHg 80%
04:00 +23°C° 0 mm 1 mps 754 mmHg 81%
05:00 +23°C° 0 mm 1 mps 754 mmHg 81%
06:00 +23°C° 0 mm 1 mps 754 mmHg 82%
07:00 +26°C° 0 mm 2 mps 754 mmHg 72%
08:00 +28°C° 0 mm 3 mps 754 mmHg 63%
09:00 +30°C° 0 mm 4 mps 754 mmHg 53%
10:00 +33°C° 0 mm 5 mps 754 mmHg 46%
11:00 +35°C° 0 mm 6 mps 754 mmHg 39%
12:00 +36°C° 0 mm 7 mps 754 mmHg 32%
13:00 +38°C° 0 mm 7 mps 754 mmHg 32%
14:00 +38°C° 0 mm 7 mps 753 mmHg 31%
15:00 +38°C° 0 mm 7 mps 753 mmHg 31%
16:00 +36°C° 0 mm 6 mps 753 mmHg 32%
17:00 +36°C° 0 mm 6 mps 753 mmHg 33%
18:00 +35°C° 0 mm 5 mps 752 mmHg 35%
19:00 +33°C° 0 mm 4 mps 752 mmHg 41%
20:00 +30°C° 0 mm 4 mps 753 mmHg 46%
21:00 +28°C° 0 mm 3 mps 753 mmHg 52%
22:00 +27°C° 0 mm 3 mps 753 mmHg 56%
23:00 +26°C° 0 mm 2 mps 752 mmHg 61%

13 July, Monday

Time Temperature Precipitation Wind Pressure Humidity
00:00 +25°C° 0 mm 2 mps 752 mmHg 65%
01:00 +24°C° 0 mm 2 mps 752 mmHg 68%
02:00 +24°C° 0 mm 1 mps 752 mmHg 70%
03:00 +23°C° 0 mm 1 mps 752 mmHg 73%
04:00 +24°C° 0 mm 1 mps 752 mmHg 74%
05:00 +24°C° 0 mm 1 mps 752 mmHg 74%
06:00 +24°C° 0 mm 1 mps 752 mmHg 75%
07:00 +24°C° 0 mm 0 mps 752 mmHg 67%
08:00 +27°C° 0 mm 0 mps 752 mmHg 59%
09:00 +29°C° 0 mm 0 mps 752 mmHg 50%
10:00 +32°C° 0.2 mm 1 mps 752 mmHg 45%
11:00 +34°C° 0.2 mm 1 mps 751 mmHg 40%
12:00 +35°C° 0.2 mm 1 mps 751 mmHg 36%
13:00 +36°C° 0 mm 2 mps 751 mmHg 36%
14:00 +36°C° 0 mm 2 mps 751 mmHg 36%
15:00 +36°C° 0 mm 2 mps 751 mmHg 36%
16:00 +35°C° 0 mm 2 mps 751 mmHg 39%
17:00 +35°C° 0 mm 3 mps 751 mmHg 41%
18:00 +34°C° 0 mm 3 mps 750 mmHg 44%
19:00 +31°C° 0.4 mm 3 mps 751 mmHg 54%
20:00 +28°C° 0.4 mm 3 mps 751 mmHg 65%
21:00 +26°C° 0.4 mm 4 mps 751 mmHg 76%
22:00 +25°C° 0.5 mm 3 mps 751 mmHg 79%
23:00 +25°C° 0.5 mm 3 mps 752 mmHg 82%

14 July, Tuesday

Time Temperature Precipitation Wind Pressure Humidity
00:00 +24°C° 0.5 mm 2 mps 752 mmHg 85%
01:00 +24°C° 0.2 mm 2 mps 752 mmHg 86%
02:00 +24°C° 0.2 mm 2 mps 752 mmHg 87%
03:00 +23°C° 0.2 mm 2 mps 752 mmHg 87%
04:00 +24°C° 0 mm 2 mps 752 mmHg 87%
05:00 +24°C° 0 mm 2 mps 752 mmHg 87%
06:00 +24°C° 0 mm 2 mps 752 mmHg 86%
07:00 +26°C° 0.1 mm 3 mps 752 mmHg 77%
08:00 +28°C° 0.1 mm 4 mps 753 mmHg 68%
09:00 +30°C° 0.1 mm 4 mps 753 mmHg 59%
10:00 +32°C° 0.1 mm 5 mps 753 mmHg 54%
11:00 +33°C° 0.1 mm 5 mps 753 mmHg 49%
12:00 +34°C° 0.1 mm 5 mps 753 mmHg 45%
13:00 +34°C° 0 mm 5 mps 753 mmHg 46%
14:00 +34°C° 0 mm 5 mps 753 mmHg 47%
15:00 +34°C° 0 mm 5 mps 754 mmHg 49%
16:00 +33°C° 0.4 mm 5 mps 754 mmHg 54%
17:00 +32°C° 0.4 mm 4 mps 754 mmHg 60%
18:00 +30°C° 0.4 mm 4 mps 754 mmHg 65%
19:00 +28°C° 0.1 mm 4 mps 755 mmHg 72%
20:00 +26°C° 0.1 mm 3 mps 755 mmHg 79%
21:00 +25°C° 0.1 mm 2 mps 755 mmHg 86%
22:00 +24°C° 0.1 mm 2 mps 756 mmHg 87%
23:00 +23°C° 0.1 mm 2 mps 756 mmHg 89%
Show more